Regional Weather Roundup
Issued by NWS

Home | Current Version | Previous Version | Text Only | Print | Product List | Glossary Off
Versions: 1 2 3 4 5 6 7 8 9 10 11 12 13 14 15 16 17 18 19 20 21 22 23 24 25 26 27 28 29 30 31 32 33 34 35 36 37 38 39 40 41 42 43 44 45 46 47 48 49 50

000
ASUS45 KBOU 180907
RWRCO

WEATHER ROUNDUP FOR COLORADO
NATIONAL WEATHER SERVICE DENVER/BOULDER CO
200 AM MST THU DEC 18 2014

NOTE: "FAIR" INDICATES FEW OR NO CLOUDS BELOW 12000 FEET WITH NO
SIGNIFICANT WEATHER AND/OR OBSTRUCTIONS TO VISIBILITY.

COZ001>005-013-030-031-181000-
...NORTHWEST COLORADO...

CITY           SKY/WX    TMP DP  RH WIND       PRES   REMARKS
CRAIG          CLOUDY    26  24  92 W3        30.06S FOG
HAYDEN         CLOUDY    25  23  93 CALM      30.04S
MEEKER         CLOUDY    26  24  92 CALM      30.05S FOG
MOUNT WERNER   NOT AVBL
STEAMBOAT SPGS CLOUDY    25  24  97 CALM      30.03S
WALDEN         CLOUDY    10   5  79 CALM      30.01R VSB 1/2
$$

COZ006>008-011-181000-
...WEST CENTRAL VALLEYS...

CITY           SKY/WX    TMP DP  RH WIND       PRES   REMARKS
GRAND JUNCTION LGT RAIN  33  33 100 N8        30.06R WCI  26
MONTROSE       LGT SNOW  32  32 100 CALM      30.07S FOG
EAGLE          CLOUDY    27  25  93 CALM      30.07R
RIFLE          LGT SNOW  33  32  96 W6        30.05R FOG     WCI  28
DELTA          CLOUDY    37  36  97 CALM      30.06S FOG
NUCLA          LGT SNOW  32  32 100 CALM      30.11R
$$

COZ017>023-064>068-181000-
...SOUTHWEST COLORADO...

CITY           SKY/WX    TMP DP  RH WIND       PRES   REMARKS
DURANGO        CLOUDY    30  27  88 CALM      30.07R
CORTEZ         CLOUDY    33  32  96 E3        30.09S
PAGOSA SPRINGS CLOUDY    30  29  98 S6        30.06R WCI  24
TELLURIDE      LGT SNOW  24  24  99 CALM      30.05R
WOLF CREEK PAS HVY SNOW  14  14 100 MISG      30.01S VSB 1/4
$$

COZ009-010-012-014-032>034-037-058>063-181000-
...CENTRAL COLORADO...

CITY           SKY/WX    TMP DP  RH WIND       PRES   REMARKS
ASPEN          CLOUDY    27  25  92 S3        30.00R
BUENA VISTA    PTCLDY    20  17  85 NW3       30.00S
COPPER MTN     LGT SNOW  19  14  79 W15       29.98S WCI   5
BERTHOUD PASS  CLOUDY    10   5  79 MISG      29.97S
COTTONWOOD PAS CLOUDY    27  21  80 CALM      29.98S
GUNNISON       PTCLDY    25  18  74 CALM      30.06R
KREMMLING      LGT SNOW  19  18  93 CALM      30.05R
LEADVILLE      PTCLDY     7   3  84 NE6       29.97S WCI  -3
MONARCH PASS   CLOUDY    14  12  92 MISG      30.08S
SALIDA         PTCLDY    25  22  86 CALM      30.07S
SUNLIGHT       LGT SNOW N/A N/A N/A CALM      30.02S
WILKERSON PASS FOG       18  16  93 W6        29.99S VSB 3/4 WCI   9
$$

COZ069>075-181000-
...SAN LUIS VALLEY/SANGRE DE CRISTO MOUNTAINS...

CITY           SKY/WX    TMP DP  RH WIND       PRES   REMARKS
ALAMOSA        CLOUDY    24  21  88 N3        30.04R
LA VETA PASS   CLOUDY    21  19  93 MISG      29.98R FOG
SAGUACHE       MIX PCPN  27  25  93 CALM      30.05R
$$

COZ035-036-038>040-181000-
...NORTHERN COLORADO FRONT RANGE...

CITY           SKY/WX    TMP DP  RH WIND       PRES   REMARKS
DENVER INTL AP MOCLDY    29  25  85 CALM      29.97S
DMNS CITY PARK   N/A     28  25  88 SE1       29.98R
AURORA         PTCLDY    28  28  99 S7        29.98R WCI  21
FRONT RANGE AP MOCLDY    32  30  93 CALM      29.98R
ERIE MUNI ARPT   N/A     20  19  96 CALM      29.99R FOG
BOULDER MUN AP PTCLDY    28  27  93 CALM      29.98R
CENTENNIAL     CLEAR     25  23  92 SE5       29.97R WCI  19
BROOMFIELD     PTCLDY    32  27  80 N5        29.98R WCI  27
FORT COLLINS   CLEAR     21  18  86 CALM      30.00R
LONGMONT       CLEAR     23  20  91 CALM      30.01R
$$

COZ041-046-047-076>085-087-088-181000-
...PIKES PEAK/PALMER DIVIDE AND SOUTHERN FOOTHILLS...

CITY           SKY/WX    TMP DP  RH WIND       PRES   REMARKS
COLO. SPRINGS  FOG       30  29  96 N5        29.99S VSB 1/16WCI  25
A. F. ACADEMY  CLOUDY    31  30  99 S2        29.98R FOG
ELLICOTT       NOT AVBL
FALCON         MOCLDY    24  23  96 NW6       29.98S WCI  17
FORT CARSON    MOCLDY    24  24  98 N5        29.98S WCI  19
LIMON          PTCLDY    18  16  92 N6        29.98S WCI  10
MONUMENT HILL  MOCLDY    25  23  93 SW6       29.95F WCI  18
TRINIDAD       PTCLDY    24  20  84 W9        29.99R WCI  14
$$

COZ042>045-048>051-090-091-181000-
...NORTHEAST COLORADO...

CITY           SKY/WX    TMP DP  RH WIND       PRES   REMARKS
GREELEY ARPT   CLEAR     18  10  73 CALM      29.99R
AKRON          MOCLDY    19  18  95 W14       29.98R WCI   6
BURLINGTON     MOCLDY    19  15  84 SW7       30.01S WCI  10
WRAY           CLOUDY   N/A N/A N/A SE5       30.04R
STERLING       FOG       19  19 100 SW3       30.00S VSB 1/4
HOLYOKE        NOT AVBL
FORT MORGAN    MOCLDY    18  16  91 W7        30.00R WCI   8
$$

COZ086-089-092>099-181000-
...SOUTHEAST COLORADO...

CITY           SKY/WX    TMP DP  RH WIND       PRES   REMARKS
PUEBLO         MOCLDY    21  20  96 NW5       30.01S WCI  15
LA JUNTA       MOCLDY    27  24  89 S5        30.03S WCI  22
LAMAR          CLOUDY    29  27  92 CALM      30.03R FOG
SPRINGFIELD      N/A     26  25  96 N14       29.99F WCI  14
$$



USA.gov is the U.S. government's official web portal to all federal, state and local government web resources and services.